Location: Newark
(47.3000°N, 8.0500°E)
Time: 09:55:33
(UTC+00:00)

OTV 5 (USA 277) - Pass Details

Date: 03 September 2019
Orbit: 295 x 339 km, 54.5° (Epoch: 08 September)

Event Time Altitude Azimuth Distance (km) Brightness Sun altitude
Rises 18:45:34 0° 289° (WNW) 2,010 ? -7.5°
Reaches altitude 10° 18:47:57 10° 313° (NW) 1,177 ? -7.9°
Maximum altitude 18:49:44 17° 356° (N) 884 ? -8.2°
Drops below altitude 10° 18:51:31 10° 40° (NE) 1,169 ? -8.4°
Enters shadow 18:52:59 - 57° (ENE) 1,654 ? -8.7°
